User: anonymous   Login
Location: Unspecified
(0.0000°N, 0.0000°E)
Time: 05:48:04
(UTC+00:00)
Language:

ONEWEB-0057 - Orbit

View from above orbital plane
View from above orbital plane
View from above satellite
View from above satellite

Ground track
Ground track

The orbit is defined by the following mean orbital elements,

1 45160U          26145.46942728 +.00000000 +00000-0 +19595-2 0 00000
2 45160  87.8856  40.7948 0002349  81.2161 278.9233 13.10373877    03
Epoch (UTC): 25 May 2026 11:15:58
Eccentricity: 0.0002349
inclination: 87.8856°
perigee height: 1220 km
apogee height: 1223 km
right ascension of ascending node: 40.7948°
argument of perigee: 81.2161°
revolutions per day: 13.10373877
mean anomaly at epoch: 278.9233°

The dashed part of the orbit path shows where the satellite is in the earth's shadow,  

DLR